Regional Weather Roundup
Issued by NWS Cleveland, OH

Home | Current Version | Previous Version | Graphics & Text | Print | Product List | Glossary On
Versions: 1 2 3 4 5 6 7 8 9 10 11 12 13 14 15 16 17 18 19 20 21 22 23 24 25 26 27 28 29 30 31 32 33 34 35 36 37 38 39 40 41 42 43 44 45 46 47 48 49 50
868
ASUS41 KCLE 172112
RWRCLE
OHIO REGIONAL WEATHER ROUNDUP
NATIONAL WEATHER SERVICE WILMINGTON, OH
400 PM EST SAT FEB 17 2018

NOTE: "FAIR" INDICATES FEW OR NO CLOUDS BELOW 12,000 FEET WITH NO
SIGNIFICANT WEATHER AND/OR OBSTRUCTIONS TO VISIBILITY.

OHZ001>008-015>018-024>027-034-035-043-044-172200-
   NORTHWEST OHIO

CITY           SKY/WX    TMP DP  RH WIND       PRES   REMARKS
DEFIANCE       CLOUDY    34  27  75 SW7       30.00R WCI  28
FINDLAY        CLOUDY    33  28  81 SW3       29.97S
TOLEDO EXPRESS CLOUDY    34  27  75 S6        29.99S WCI  29
TOLEDO EXEC    CLOUDY    34  26  72 S8        30.00F WCI  27
LIMA           CLOUDY    32  31  96 SW8       29.97R WCI  25
$$

OHZ009>014-019>023-028>033-038-089-172200-
   NORTHEAST OHIO

CITY           SKY/WX    TMP DP  RH WIND       PRES   REMARKS
CLE-HOPKINS    CLOUDY    34  25  69 S10       30.02F WCI  26
CLE-LAKEFRONT  PTSUNNY   34  22  61 S10       30.01F WCI  26
CUY CO. ARPT   CLOUDY    34  23  64 S7        30.02F WCI  28
LORAIN-ELYRIA  CLOUDY    32  21  64 S8        30.00F WCI  25
ASHTABULA      CLOUDY    30  22  72 S10       30.04F WCI  21
AKRON-CANTON   CLOUDY    33  24  69 S3        30.00F
WOOSTER        CLOUDY    32  25  75 S3        30.00F
MANSFIELD      LGT SNOW  32  26  78 S8        29.96F WCI  25
YOUNGSTOWN     CLOUDY    31  22  69 S5        30.02S WCI  26
$$

OHZ042-051>053-060>062-070>072-077>081-172200-
  SOUTHWEST OHIO

CITY           SKY/WX    TMP DP  RH WIND       PRES   REMARKS
CINC-COVINGTON CLOUDY    34  34 100 S7        29.99F FOG     WCI  28
CINC-LUNKEN    LGT SNOW  34  33  96 SW5       30.03R FOG     WCI  30
HAMILTON       CLOUDY    35  34  96 SE5       30.01F FOG
DAYTON         CLOUDY    34  34 100 S8        29.98S FOG     WCI  27
WRIGHT-PAT AFB CLOUDY    34  34 100 S5        29.99R FOG     WCI  30
DAYTON GENERAL CLOUDY    34  32  92 S6        29.98F FOG     WCI  29
WILMINGTON     LGT SNOW  33  33 100 S6        29.98F FOG     WCI  28
$$

OHZ036-037-039>041-045>050-054>059-063>069-073>076-082>088-172200-
  CENTRAL AND SOUTHEAST OHIO

CITY           SKY/WX    TMP DP  RH WIND       PRES   REMARKS
COLUMBUS       LGT SNOW  32  32 100 SE3       30.00F VSB 3/4
OSU AIRPORT    LGT SNOW  32  31  96 SE5       29.99F FOG     WCI  27
BOLTON FIELD   LGT SNOW  32  30  93 CALM      30.00F VSB 1
RICKENBACK AFB LGT SNOW  32  32 100 CALM      30.01F VSB 3/4
NEWARK         LGT SNOW  32  30  92 VRB3      29.99F VSB 3/4
MARION         LGT SNOW  31  29  92 S5        29.99F FOG     WCI  26
LANCASTER      SNOW      32  32 100 SE5       30.00F VSB 1/2 WCI  27
ZANESVILLE     LGT SNOW  33  30  88 SE3       30.01F FOG
NEW PHILLY     LGT SNOW  33  29  85 CALM      30.03S FOG
$$




USA.gov is the U.S. government's official web portal to all federal, state and local government web resources and services.